CDT,Max TemperatureF,Mean TemperatureF,Min TemperatureF,Max Dew PointF,MeanDew PointF,Min DewpointF,Max Humidity, Mean Humidity, Min Humidity, Max Sea Level PressureIn, Mean Sea Level PressureIn, Min Sea Level PressureIn, Max VisibilityMiles, Mean VisibilityMiles, Min VisibilityMiles, Max Wind SpeedMPH, Mean Wind SpeedMPH, Max Gust SpeedMPH,PrecipitationIn, CloudCover, Events, WindDirDegrees
2012-9-1,90,79,68,69,66,61,93,68,37,30.04,29.99,29.94,10,10,7,12,4,18,0.00,0,,18
2012-9-2,92,77,62,68,61,56,85,60,35,30.00,29.94,29.88,10,10,10,8,4,,0.00,0,,129
2012-9-3,85,77,70,72,70,67,92,79,59,29.98,29.90,29.85,10,10,7,12,6,18,0.00,1,Rain,118
2012-9-4,97,82,68,70,68,61,97,66,33,29.90,29.84,29.74,10,9,2,12,5,17,0.00,0,,150
2012-9-5,87,76,65,68,53,43,81,47,23,29.96,29.87,29.74,10,10,10,16,5,25,0.00,0,,314
2012-9-6,90,73,57,65,51,42,67,47,24,30.03,29.92,29.79,10,10,10,15,5,21,0.00,0,,130
2012-9-7,75,66,57,66,55,45,83,65,40,30.12,29.95,29.77,10,10,10,17,9,24,0.00,1,Rain,324
2012-9-8,84,65,46,46,40,31,86,47,15,30.19,30.09,29.97,10,10,10,17,5,24,0.00,0,,287
2012-9-9,77,62,49,47,44,39,78,51,29,30.25,30.17,30.08,10,10,10,12,4,18,0.00,0,,23
2012-9-10,86,69,52,52,48,44,84,51,24,30.14,30.04,29.92,10,10,10,20,9,28,0.00,0,,162
2012-9-11,95,77,59,52,48,43,72,42,17,29.96,29.91,29.86,10,10,10,22,13,34,0.03,0,,163
2012-9-12,77,66,55,61,54,41,97,63,37,30.28,30.05,29.92,10,9,1,20,10,34,1.37,3,Rain-Thunderstorm,74
2012-9-13,65,58,50,54,50,47,97,81,51,30.43,30.36,30.25,10,10,7,17,7,24,0.29,3,Rain,4
2012-9-14,77,64,50,50,44,36,90,58,25,30.39,30.34,30.29,10,10,10,13,7,17,0.00,0,,194
2012-9-15,78,62,47,57,50,44,90,65,40,30.30,30.21,30.10,10,10,10,13,6,18,0.00,1,,160
2012-9-16,75,66,58,63,59,57,98,83,54,30.10,30.01,29.92,10,8,0,12,5,16,0.00,3,Fog,169
2012-9-17,64,58,51,62,53,40,99,82,48,30.06,29.98,29.91,10,7,0,14,5,21,0.02,4,Fog-Rain-Thunderstorm,25
2012-9-18,70,55,40,43,38,31,91,54,25,30.14,30.05,29.95,10,10,10,10,3,,0.00,0,,200
2012-9-19,92,70,50,49,42,32,85,46,15,30.01,29.88,29.77,10,10,10,20,9,33,0.00,0,,198
2012-9-20,74,61,49,46,37,27,65,43,20,30.08,30.01,29.96,10,10,10,12,4,18,0.00,0,,294
2012-9-21,76,64,53,47,36,28,64,39,17,29.94,29.88,29.82,10,10,5,24,8,31,0.00,0,,277
2012-9-22,63,53,43,39,29,24,63,40,24,30.29,30.20,29.94,10,10,7,12,6,20,0.00,0,,338
2012-9-23,69,53,38,35,31,25,87,44,23,30.36,30.28,30.21,10,10,5,8,1,,0.00,0,,140
2012-9-24,74,60,47,52,41,35,69,51,28,30.21,30.02,29.84,10,10,10,12,6,,0.00,1,,148
2012-9-25,84,68,52,54,48,41,91,55,22,29.90,29.85,29.81,10,10,7,6,3,,0.00,0,Rain,14
2012-9-26,75,64,53,46,38,31,59,40,20,30.15,30.04,29.88,10,10,7,12,5,,0.00,0,,36
2012-9-27,76,60,44,38,30,18,73,37,11,30.23,30.17,30.12,10,10,2,7,2,,0.00,0,,19
2012-9-28,75,60,46,56,41,27,79,51,24,30.21,30.16,30.12,10,7,2,7,3,,0.00,0,,121
2012-9-29,79,64,49,47,40,34,75,46,20,30.19,30.12,30.05,10,10,10,6,1,,0.00,0,,163
2012-9-30,80,65,50,44,41,38,70,42,23,30.05,29.98,29.91,10,10,10,6,2,,0.00,0,,311